When you browse on this site, cookies collect data to enhance your experience and personalize the content and advertising you see.
Visit our Privacy Policy to learn more. By continuing to use the site, you agree to this use of cookies and data.
  • en Suisse
  • Liste des pays
  • À 7 jours
  • Température de l'eau
  • Carte météo
  • Widgets météo
  • user-avatar
    Se connecter

    Météo par heure à Tvericy

    Ce jour, 9 Décembre, Lundi

    Heure Température Précipitation Vent Pression Humidité
    00:00 -1°C° 0.1 mm 6 m/s 732 mmHg 94%
    01:00 -1°C° 0.1 mm 6 m/s 732 mmHg 93%
    02:00 +1°C° 0 mm 6 m/s 732 mmHg 90%
    03:00 +1°C° 0.1 mm 6 m/s 731 mmHg 91%
    04:00 0°C° 0.1 mm 7 m/s 731 mmHg 93%
    05:00 0°C° 0.1 mm 7 m/s 730 mmHg 94%
    06:00 -1°C° 0.1 mm 7 m/s 730 mmHg 93%
    07:00 -1°C° 0.1 mm 6 m/s 731 mmHg 93%
    08:00 -1°C° 0 mm 6 m/s 731 mmHg 92%
    09:00 -1°C° 0.1 mm 6 m/s 731 mmHg 92%
    10:00 -1°C° 0.1 mm 6 m/s 731 mmHg 92%
    11:00 -1°C° 0.1 mm 6 m/s 731 mmHg 92%
    12:00 0°C° 0 mm 5 m/s 732 mmHg 92%
    13:00 +1°C° 0 mm 5 m/s 732 mmHg 92%
    14:00 +1°C° 0 mm 4 m/s 732 mmHg 90%
    15:00 +1°C° 0 mm 4 m/s 732 mmHg 92%
    16:00 0°C° 0 mm 4 m/s 733 mmHg 93%
    17:00 0°C° 0 mm 4 m/s 733 mmHg 95%
    18:00 0°C° 0.1 mm 4 m/s 733 mmHg 94%
    19:00 0°C° 0.1 mm 4 m/s 734 mmHg 94%
    20:00 0°C° 0.1 mm 4 m/s 734 mmHg 94%
    21:00 0°C° 0 mm 4 m/s 734 mmHg 94%
    22:00 0°C° 0 mm 4 m/s 735 mmHg 94%
    23:00 +1°C° 0 mm 3 m/s 735 mmHg 94%

    Demain, 10 Décembre, Mardi

    Heure Température Précipitation Vent Pression Humidité
    00:00 +1°C° 0 mm 3 m/s 735 mmHg 95%
    01:00 0°C° 0 mm 3 m/s 736 mmHg 96%
    02:00 0°C° 0 mm 3 m/s 736 mmHg 96%
    03:00 0°C° 0 mm 3 m/s 736 mmHg 96%
    04:00 0°C° 0 mm 3 m/s 736 mmHg 96%
    05:00 +1°C° 0 mm 2 m/s 737 mmHg 96%
    06:00 +1°C° 0 mm 2 m/s 737 mmHg 96%
    07:00 +1°C° 0 mm 2 m/s 737 mmHg 96%
    08:00 +1°C° 0 mm 2 m/s 737 mmHg 96%
    09:00 +1°C° 0.2 mm 2 m/s 737 mmHg 96%
    10:00 +1°C° 0.2 mm 2 m/s 737 mmHg 96%
    11:00 +2°C° 0.2 mm 2 m/s 738 mmHg 96%
    12:00 +2°C° 0.3 mm 2 m/s 738 mmHg 96%
    13:00 +1°C° 0.3 mm 3 m/s 738 mmHg 97%
    14:00 +1°C° 0.3 mm 3 m/s 738 mmHg 97%
    15:00 +1°C° 0 mm 3 m/s 738 mmHg 97%
    16:00 +1°C° 0 mm 3 m/s 738 mmHg 97%
    17:00 +1°C° 0 mm 3 m/s 738 mmHg 97%
    18:00 +2°C° 0 mm 2 m/s 738 mmHg 97%
    19:00 +2°C° 0 mm 2 m/s 739 mmHg 97%
    20:00 +2°C° 0 mm 2 m/s 739 mmHg 97%
    21:00 +2°C° 0 mm 2 m/s 739 mmHg 97%
    22:00 +2°C° 0 mm 2 m/s 739 mmHg 97%
    23:00 +2°C° 0 mm 2 m/s 739 mmHg 97%

    Après-demain, 11 Décembre, Mercredi

    Heure Température Précipitation Vent Pression Humidité
    00:00 +3°C° 0 mm 1 m/s 740 mmHg 97%
    01:00 +3°C° 0 mm 1 m/s 740 mmHg 97%
    02:00 +3°C° 0 mm 1 m/s 741 mmHg 97%
    03:00 +3°C° 0 mm 1 m/s 741 mmHg 97%
    04:00 +3°C° 0 mm 1 m/s 741 mmHg 97%
    05:00 +3°C° 0 mm 1 m/s 741 mmHg 97%
    06:00 +2°C° 0 mm 1 m/s 742 mmHg 97%
    07:00 +1°C° 0 mm 0 m/s 742 mmHg 96%
    08:00 +1°C° 0 mm 0 m/s 743 mmHg 95%
    09:00 +2°C° 0 mm 1 m/s 743 mmHg 94%
    10:00 +3°C° 0 mm 1 m/s 744 mmHg 93%
    11:00 +3°C° 0 mm 1 m/s 744 mmHg 92%
    12:00 +3°C° 0 mm 1 m/s 744 mmHg 92%
    13:00 +3°C° 0 mm 1 m/s 744 mmHg 92%
    14:00 +3°C° 0 mm 1 m/s 744 mmHg 92%
    15:00 +3°C° 0 mm 1 m/s 744 mmHg 93%
    16:00 +2°C° 0 mm 1 m/s 745 mmHg 94%
    17:00 +2°C° 0 mm 1 m/s 745 mmHg 94%
    18:00 +1°C° 0 mm 2 m/s 745 mmHg 94%
    19:00 +1°C° 0 mm 2 m/s 745 mmHg 94%
    20:00 +1°C° 0 mm 2 m/s 745 mmHg 94%
    21:00 +2°C° 0 mm 2 m/s 745 mmHg 94%
    22:00 +1°C° 0 mm 3 m/s 745 mmHg 94%
    23:00 +1°C° 0 mm 3 m/s 745 mmHg 95%

    12 Décembre, Jeudi

    Heure Température Précipitation Vent Pression Humidité
    00:00 +1°C° 0 mm 3 m/s 745 mmHg 95%
    01:00 +1°C° 0 mm 3 m/s 745 mmHg 95%
    02:00 +2°C° 0 mm 2 m/s 745 mmHg 95%
    03:00 0°C° 0 mm 3 m/s 745 mmHg 95%
    04:00 0°C° 0 mm 3 m/s 745 mmHg 95%
    05:00 0°C° 0 mm 3 m/s 744 mmHg 95%
    06:00 0°C° 0 mm 3 m/s 744 mmHg 95%
    07:00 0°C° 0 mm 3 m/s 744 mmHg 94%
    08:00 0°C° 0 mm 3 m/s 744 mmHg 93%
    09:00 +1°C° 0 mm 3 m/s 744 mmHg 94%
    10:00 0°C° 0 mm 4 m/s 744 mmHg 95%
    11:00 0°C° 0 mm 4 m/s 744 mmHg 96%
    12:00 0°C° 0.1 mm 4 m/s 744 mmHg 96%
    13:00 0°C° 0.1 mm 4 m/s 743 mmHg 96%
    14:00 +1°C° 0.1 mm 4 m/s 743 mmHg 97%
    15:00 +1°C° 0.1 mm 4 m/s 743 mmHg 95%
    16:00 +1°C° 0.1 mm 4 m/s 743 mmHg 94%
    17:00 +1°C° 0.1 mm 4 m/s 742 mmHg 93%
    18:00 0°C° 0 mm 5 m/s 742 mmHg 91%
    19:00 0°C° 0 mm 5 m/s 742 mmHg 89%
    20:00 -1°C° 0 mm 6 m/s 742 mmHg 88%
    21:00 -1°C° 0 mm 6 m/s 742 mmHg 89%
    22:00 -2°C° 0 mm 6 m/s 742 mmHg 90%
    23:00 -1°C° 0 mm 5 m/s 742 mmHg 92%

    13 Décembre, Vendredi

    Heure Température Précipitation Vent Pression Humidité
    00:00 -1°C° 0 mm 5 m/s 741 mmHg 91%
    01:00 -1°C° 0 mm 5 m/s 741 mmHg 91%
    02:00 -1°C° 0 mm 5 m/s 741 mmHg 91%
    03:00 -1°C° 0 mm 5 m/s 741 mmHg 91%
    04:00 -1°C° 0 mm 4 m/s 741 mmHg 91%
    05:00 -1°C° 0 mm 4 m/s 741 mmHg 90%
    06:00 -1°C° 0 mm 4 m/s 741 mmHg 89%
    07:00 0°C° 0 mm 5 m/s 741 mmHg 88%
    08:00 0°C° 0 mm 5 m/s 740 mmHg 87%
    09:00 0°C° 0 mm 5 m/s 740 mmHg 85%
    10:00 0°C° 0 mm 5 m/s 740 mmHg 83%
    11:00 0°C° 0 mm 5 m/s 740 mmHg 81%
    12:00 -1°C° 0 mm 5 m/s 740 mmHg 80%
    13:00 -1°C° 0 mm 5 m/s 739 mmHg 79%
    14:00 -1°C° 0 mm 5 m/s 739 mmHg 78%
    15:00 -1°C° 0 mm 5 m/s 739 mmHg 79%
    16:00 -1°C° 0 mm 5 m/s 738 mmHg 81%
    17:00 -1°C° 0 mm 5 m/s 738 mmHg 82%
    18:00 -1°C° 0 mm 5 m/s 738 mmHg 83%
    19:00 -1°C° 0 mm 5 m/s 738 mmHg 83%
    20:00 -2°C° 0 mm 5 m/s 738 mmHg 83%
    21:00 -2°C° 0 mm 5 m/s 738 mmHg 83%
    22:00 -2°C° 0 mm 5 m/s 738 mmHg 84%
    23:00 -2°C° 0 mm 5 m/s 737 mmHg 84%

    14 Décembre, Samedi

    Heure Température Précipitation Vent Pression Humidité
    00:00 -2°C° 0 mm 5 m/s 737 mmHg 84%
    01:00 -4°C° 0 mm 5 m/s 737 mmHg 83%
    02:00 -4°C° 0 mm 5 m/s 737 mmHg 82%
    03:00 -5°C° 0 mm 5 m/s 737 mmHg 81%
    04:00 -5°C° 0 mm 5 m/s 737 mmHg 80%
    05:00 -6°C° 0 mm 5 m/s 736 mmHg 78%
    06:00 -6°C° 0 mm 5 m/s 736 mmHg 78%
    07:00 -6°C° 0 mm 5 m/s 736 mmHg 77%
    08:00 -6°C° 0 mm 5 m/s 736 mmHg 77%
    09:00 -5°C° 0 mm 5 m/s 736 mmHg 75%
    10:00 -5°C° 0 mm 5 m/s 736 mmHg 73%
    11:00 -5°C° 0 mm 5 m/s 736 mmHg 71%
    12:00 -5°C° 0 mm 5 m/s 736 mmHg 71%
    13:00 -5°C° 0 mm 5 m/s 736 mmHg 71%
    14:00 -5°C° 0 mm 5 m/s 735 mmHg 71%
    15:00 -5°C° 0.1 mm 5 m/s 735 mmHg 76%
    16:00 -5°C° 0.1 mm 5 m/s 735 mmHg 82%
    17:00 -5°C° 0.1 mm 5 m/s 735 mmHg 87%
    18:00 -5°C° 0.5 mm 5 m/s 735 mmHg 89%
    19:00 -5°C° 0.5 mm 5 m/s 735 mmHg 91%
    20:00 -5°C° 0.5 mm 5 m/s 734 mmHg 93%
    21:00 -4°C° 0.3 mm 5 m/s 734 mmHg 93%
    22:00 -4°C° 0.3 mm 5 m/s 735 mmHg 93%
    23:00 -2°C° 0.3 mm 5 m/s 735 mmHg 94%
    Voir plus